Orbital Elements at Epoch 2459200.5 (2020-Dec-17.0) TDB
Reference: JPL 16 (heliocentric ecliptic J2000)
Element | Value | Uncertainty (1-sigma) | Units |
e | .2086488729137373 | 7.0086e-08 | |
a | 2.601840552897427 | 1.6057e-08 | au |
q | 2.058969454034124 | 1.8831e-07 | au |
i | 4.737285798022928 | 9.5146e-06 | deg |
node | 177.777533397743 | 7.9869e-05 | deg |
peri | 84.16927635193507 | 8.3171e-05 | deg |
M | 12.83181836416037 | 2.2959e-05 | deg |
tp | 2459145.860697434092 (2020-Oct-23.36069743) | 9.756e-05 | TDB |
period | 1532.919837664333 4.20 | 1.419e-05 3.885e-08 | d yr |
n | .2348459398558779 | 2.1739e-09 | deg/d |
Q | 3.14471165176073 | 1.9407e-08 | au |
|
| | Orbit Determination Parameters
Additional Information
|